User: anonymous   Login
Location: Wawayanda State Park
(41.1833°N, 74.4333°W)
Time: 13:31:48
(UTC-05:00)
Language:

RESURS DK-1 - Orbit

View from above orbital plane
View from above orbital plane
View from above satellite
View from above satellite

Ground track
Ground track

The orbit data is extracted from the following two-line orbital elements,

1 29228U 06021A   14330.43053337  .00001745  00000-0  14385-3 0  4616
2 29228 069.9367 312.2356 0006795 308.1622 213.2907 15.01010883467914
Epoch (UTC): 26 November 2014 10:19:58
Eccentricity: 0.0006795
inclination: 69.9367°
perigee height: 559 km
apogee height: 568 km
right ascension of ascending node: 312.2356°
argument of perigee: 308.1622°
revolutions per day: 15.01010883
mean anomaly at epoch: 213.2907°
orbit number at epoch: 46791

The dashed part of the orbit path shows where the satellite is in the earth's shadow,  

DLR